Regional Weather Roundup
Issued by NWS

Home | Current Version | Previous Version | Graphics & Text | Print | Product List | Glossary On
Versions: 1 2 3 4 5 6 7 8 9 10 11 12 13 14 15 16 17 18 19 20 21 22 23 24 25 26 27 28 29 30 31 32 33 34 35 36 37 38 39 40 41 42 43 44 45 46 47 48 49 50
000
ASUS43 KBIS 301701
RWRND

NORTH DAKOTA REGIONAL WEATHER ROUNDUP
NATIONAL WEATHER SERVICE BISMARCK ND
1100 AM CST FRI JAN 30 2015

NOTE: "FAIR" INDICATES FEW OR NO CLOUDS BELOW 12,000 FEET WITH NO
SIGNIFICANT WEATHER AND/OR OBSTRUCTIONS TO VISIBILITY.


NDZ001>003-009>011-017-301800-
NORTHWEST NORTH DAKOTA

CITY           SKY/WX    TMP DP  RH WIND       PRES   REMARKS
WILLISTON      SUNNY     32  27  81 VRB5      30.20R
MINOT          SUNNY     32  22  66 W13       30.13R
MINOT AFB      SUNNY     31  28  90 NW13      30.12S
$$

NDZ018>021-031>035-040>046-301800-
SOUTHWEST NORTH DAKOTA

CITY           SKY/WX    TMP DP  RH WIND       PRES   REMARKS
BISMARCK       SUNNY     30  23  75 SW7       30.19F
DICKINSON      SUNNY     39  26  59 NW12      30.15R
GARRISON         N/A     31  25  78 W7        30.14S
HETTINGER ARPT SUNNY     38  26  62 NW10      30.18S
$$

NDZ004>008-012>016-024-026-027-054-301800-
NORTHEAST NORTH DAKOTA

CITY           SKY/WX    TMP DP  RH WIND       PRES   REMARKS
GRAND FORKS    CLOUDY    17  11  77 S21G28    30.25F WCI   0
GRND FRKS AFB  CLOUDY    18  11  75 S21       30.24F WCI   1
DEVILS LAKE    SUNNY     25  19  80 S15       30.15F WCI  12
$$

NDZ022-023-025-028>030-036>039-047>053-301800-
SOUTHEAST NORTH DAKOTA

CITY           SKY/WX    TMP DP  RH WIND       PRES   REMARKS
FARGO          CLOUDY    20  13  74 S17       30.32F WCI   5
JAMESTOWN      SUNNY     26  19  74 S16       30.17F WCI  14
$$



USA.gov is the U.S. government's official web portal to all federal, state and local government web resources and services.